Location: Oak Cliff
(32.7393°N, 96.8111°W)
Time: 00:49:19
(UTC+00:00)

Daily predictions for brighter satellites

Satellite Brightness Start Highest point End
(mag) Time Altitude Azimuth Time Altitude Azimuth Time Altitude Azimuth
Delta 168 4.4 02:01:29 10° WSW 02:06:16 41° S 02:13:15 10° ESE
Centaur AC-119 4.2 02:02:45 10° SSW 02:06:31 31° SE 02:15:59 10° E
USA 234 3.4 02:02:29 10° NE 02:08:50 53° SE 02:15:10 10° SSW
DELTA 2 R/B (1) 4.1 02:05:09 10° WNW 02:10:35 53° SSW 02:16:00 10° SE
Meteor 1-18 Rocket 4.5 02:07:59 10° S 02:13:53 84° W 02:19:44 10° N
Resurs 01 Rocket 1.8 02:10:09 10° SSE 02:14:26 54° ENE 02:18:44 10° N
SJ-6B 4.0 02:15:33 10° S 02:18:56 39° W 02:22:21 10° NNW
Cosmos 2026 Rocket 4.0 02:13:34 10° S 02:19:46 82° E 02:25:54 10° N
Lacrosse 5 rocket 2.9 02:22:32 10° WNW 02:26:11 29° WSW 02:29:42 10° S
Cosmos 1470 4.3 02:25:12 10° NNE 02:27:49 18° ENE 02:29:33 14° ESE
CZ-4 R/B 2.6 02:25:12 10° S 02:28:54 41° W 02:32:42 10° NNW
CZ-4B R/B 3.2 02:24:48 10° SSE 02:30:04 83° WSW 02:35:25 10° NNW
Cosmos 1328 Rocket 4.4 02:28:09 10° SSW 02:32:18 52° W 02:36:30 10° N
KORONAS-FOTON 4.0 02:28:46 10° SSE 02:32:19 46° E 02:35:54 10° NNE
Cosmos 1842 3.0 02:34:23 10° S 02:37:59 62° E 02:41:36 10° NNE
IRIDIUM 106 4.4 02:37:05 10° N 02:42:14 58° E 02:46:58 12° SSE
H-2A R/B 2.4 02:44:52 10° SW 02:45:27 11° SSW 02:45:27 11° SSW
Cosmos 540 Rocket 4.1 02:46:39 10° N 02:51:27 39° ENE 02:54:15 22° SE
Meteosat 1 Rocket2 4.4 02:47:57 10° W 02:53:09 49° S 02:58:24 20° ESE
USA 186 4.2 02:53:56 10° SSW 02:56:33 22° W 02:59:13 10° NW
Cosmos 2082 Rocket 4.1 02:52:09 10° SW 02:57:15 33° WNW 03:02:21 10° N
SL-16 R/B 3.6 02:56:12 10° N 03:00:40 23° ENE 03:03:14 17° E
Okean-O 2.5 02:58:43 22° SSE 03:01:32 74° ENE 03:05:56 10° N
MOS 1-B Rocket 4.4 02:55:39 10° S 03:02:03 63° WSW 03:07:47 10° NNW
Cosmos 2333 Rocket 4.5 03:01:49 10° NE 03:02:20 10° NE 03:02:51 10° ENE
Cosmos 1707 2.6 02:59:32 11° S 03:02:57 75° W 03:06:34 10° N
Cosmos 1515 Rocket 4.3 03:00:04 10° SSW 03:04:15 52° W 03:08:28 10° N
SeaSat 1 3.8 03:02:21 18° E 03:04:36 25° ENE 03:08:33 10° N
Cosmos 2369 3.7 02:59:02 10° NNW 03:04:47 89° ENE 03:08:35 22° SSE
Atlas Centaur 2 3.0 02:59:31 10° W 03:07:34 76° S 03:14:19 17° E
USA 245 4.3 03:10:21 24° ENE 03:10:40 24° ENE 03:13:48 10° NNE
CZ-4C R/B 3.8 03:09:49 10° N 03:13:55 63° WNW 03:17:57 10° SSW
SPOT 5 2.5 03:14:17 33° SSE 03:16:06 70° ENE 03:20:25 10° N
IRS-1A Rocket 4.4 03:14:38 29° SE 03:17:21 57° ENE 03:22:44 10° N
Cosmos 2228 Rocket 4.0 03:18:36 30° E 03:18:57 31° E 03:22:57 10° NNE
MetOp-B 4.1 03:16:28 28° SSE 03:19:22 76° ENE 03:24:44 10° N
Okean O Rocket 3.2 03:17:52 10° SSW 03:21:44 30° W 03:25:35 10° NW
Tiangong -1.1 03:19:08 10° NW 03:22:07 38° NNE 03:22:45 34° NE
Cosmos 1356 Rocket 4.2 03:25:55 34° E 03:25:55 34° E 03:29:33 10° NNE
ASTRO E2 3.2 03:23:06 10° WSW 03:25:30 35° SSW 03:25:30 35° SSW
Cosmos 1553 Rocket 4.1 03:22:30 10° N 03:28:42 75° W 03:33:03 21° S
Cosmos 1869 Rocket 3.7 03:24:58 10° N 03:29:22 58° E 03:30:17 47° SE
Cosmos 1400 Rocket 2.6 03:28:43 48° S 03:29:44 82° E 03:33:36 10° N
S3M 4.1 03:25:59 10° N 03:32:14 58° E 03:34:41 36° SE
ERS-1 Rocket 3.0 03:30:43 41° SE 03:32:21 64° ENE 03:37:20 10° N
Cosmos 2266 Rocket 4.0 03:30:54 20° S 03:35:26 90° E 03:41:50 10° N
Cosmos 1655 Rocket 4.1 03:34:27 33° SSE 03:37:19 62° E 03:43:37 10° NNE
ATLAS CENTAUR R/B 1.3 03:36:30 26° SW 03:38:13 61° WNW 03:41:42 10° NNE
Meteor 1-22 Rocket 4.3 03:34:18 10° N 03:39:59 63° E 03:41:50 42° SE
Cosmos 841 Rocket 3.9 03:35:53 10° N 03:40:58 47° ENE 03:41:59 42° ESE
Cosmos 1980 Rocket 3.7 03:37:09 10° NW 03:41:58 29° WSW 03:45:43 15° SSW
Cosmos 1763 Rocket 4.4 03:37:42 10° NNW 03:42:36 42° WSW 03:45:09 25° SSW
Spot 2 Rocket 3.6 03:42:27 48° ESE 03:43:33 59° ENE 03:48:31 10° N
Cosmos 2322 Rocket 3.1 03:38:39 10° N 03:43:44 33° ENE 03:44:58 30° E
Cosmos 1300 4.1 03:41:12 10° NNE 03:43:15 24° NE 03:43:15 24° NE
Cosmos 1441 Rocket 3.4 03:41:34 10° NNW 03:45:08 58° W 03:45:27 56° WSW
Cosmos 1908 4.1 03:49:41 10° NNW 03:53:03 38° W 03:53:29 37° WSW
Cosmos 1862 Rocket 3.8 03:55:14 55° ENE 03:55:14 55° ENE 03:59:08 10° NNE
Meteor 1-21 4.2 03:54:03 51° SSE 03:55:25 68° E 04:01:11 10° NNE
Cosmos 2278 3.6 03:49:54 10° NNW 03:55:38 87° WSW 03:57:04 53° SSE
Terra 1.7 03:54:54 63° S 03:55:39 86° WSW 04:00:23 10° NNW
Meteor 2-10 Rocket 3.5 03:50:16 10° N 03:55:43 64° E 03:56:28 57° ESE
Cosmos 883 Rocket 4.4 03:55:17 10° N 04:01:38 75° E 04:03:16 52° SSE
Landsat 5 3.7 04:02:36 10° NNE 04:05:57 58° NNE 04:05:57 58° NNE
Okean 3 4.1 04:08:31 45° NE 04:08:31 45° NE 04:11:35 10° NNE
Ariane Rocket 2.9 04:07:33 67° S 04:08:14 82° WSW 04:13:20 10° NNW
Cosmos 2219 Rocket 3.8 04:05:01 10° NNE 04:09:11 21° ENE 04:09:56 20° ENE
Cosmos 2237 4.2 04:05:29 10° NNW 04:11:11 72° WSW 04:12:12 58° SSW
SL-14 R/B 4.1 04:12:43 45° WNW 04:12:43 45° WNW 04:16:10 10° N
Cosmos 1707 Rocket 3.8 04:15:11 61° W 04:15:22 62° W 04:19:47 10° N
SJ 16-02 1.7 04:16:46 60° N 04:16:46 60° N 04:20:19 10° NNE
Cosmos 1346 Rocket 4.0 04:23:43 10° N 04:26:15 39° NNW 04:26:15 39° NNW
Cosmos 2315 Rocket 4.1 04:21:52 10° N 04:28:13 72° W 04:29:33 55° SSW
RESURS DK-1 3.4 04:28:20 10° NNW 04:31:10 43° NW 04:31:10 43° NW
SPOT 3 Rocket 4.0 04:32:13 50° WSW 04:32:32 51° W 04:37:33 10° NNW
Cosmos 2360 Rocket 2.2 04:28:24 10° NNW 04:34:00 70° ENE 04:34:00 70° ENE
ATLAS 2AS CENTAUR R/B 2.9 04:30:00 10° NNW 04:36:34 53° NE 04:37:28 49° E
SeaSat 1 3.5 04:42:03 34° WSW 04:42:03 34° WSW 04:46:17 10° NW
Cosmos 1733 Rocket 4.0 04:39:23 10° NNW 04:42:49 45° NW 04:42:49 45° NW
SL-16 R/B 3.0 04:39:34 10° NW 04:44:50 40° WSW 04:45:05 40° WSW
Okean 1-7 4.2 04:47:57 41° NNW 04:47:57 41° NNW 04:50:53 10° N
USA 281 3.9 04:45:41 37° ENE 04:46:34 39° ENE 04:52:33 10° N
Cosmos 2333 Rocket 2.2 04:41:38 10° NNW 04:47:07 79° NNE 04:47:07 79° NNE
CZ-2C R/B 4.3 04:50:23 35° ENE 04:50:23 35° ENE 04:59:41 10° N
Cosmos 1814 Rocket 4.4 04:51:05 10° NNW 04:55:33 63° N 04:55:33 63° N
Atlas Centaur 2 3.1 04:48:49 10° W 04:56:31 57° SSW 04:56:31 57° SSW
Cosmos 1745 Rocket 4.1 05:08:42 67° NE 05:08:42 67° NE 05:14:25 10° N
Cosmos 839 Rocket 4.1 05:06:00 10° NNW 05:12:09 70° NE 05:12:09 70° NE
Nadezhda 1 Rocket 4.1 05:18:58 10° N 05:24:27 66° NNE 05:24:27 66° NNE
Cosmos 2297 Rocket 3.5 05:29:40 32° NE 05:29:40 32° NE 05:32:46 10° NNE
Cosmos 2322 Rocket 3.7 05:22:51 10° NW 05:26:46 27° W 05:26:46 27° W
CENTAUR R/B 4.4 05:33:37 15° ENE 05:33:37 15° ENE 05:35:02 10° ENE
CZ-3 Stage 3 3.6 05:00:59 10° W 05:34:18 73° SSW 05:35:53 64° SSE
COSMOS 2428 3.4 05:46:57 10° NNW 05:51:11 50° N 05:51:11 50° N
Cosmos 2219 Rocket 3.4 05:47:54 10° NNW 05:51:37 36° WNW 05:51:37 36° WNW
COSMOS 2455 3.8 06:07:48 41° WNW 06:07:48 41° WNW 06:13:22 10° N
SL-12 R/B(2) 4.3 06:09:01 57° E 06:09:01 57° E 06:16:53 10° NE
NOSS 0 Rocket 4.4 06:04:53 10° NNW 06:10:02 57° NNE 06:10:02 57° NNE
CZ-4C R/B 3.6 06:13:09 27° NNW 06:13:09 27° NNW 06:16:24 10° NNE
ATLAS 2AS CENTAUR R/B 4.3 06:21:57 10° WNW 06:24:53 20° W 06:24:53 20° W
USA 281 4.4 06:32:33 29° W 06:32:33 29° W 06:36:48 10° NW
Cosmos 2098 Rocket 4.4 06:27:10 10° N 06:32:30 59° NNW 06:32:30 59° NNW
Cosmos 2154 Rocket 4.5 06:39:30 54° NE 06:39:30 54° NE 06:44:30 10° NNE
SL-16 R/B 4.1 06:41:20 10° N 06:45:35 21° ENE 06:46:35 20° ENE
Cosmos 2227 Rocket 3.1 06:52:28 45° NNW 06:52:28 45° NNW 06:56:40 10° NNE
Cosmos 2237 Rocket 3.1 06:47:20 10° NNW 06:51:07 44° NNW 06:51:07 44° NNW
H-2A R/B 4.4 06:49:40 10° N 06:51:12 20° NNW 06:51:12 20° NNW
CZ-2D R/B 4.5 07:05:49 10° ENE 07:07:38 13° E 07:07:38 13° E
Cosmos 2297 Rocket 4.2 07:11:26 19° WNW 07:11:37 19° WNW 07:15:31 10° NNW
Cosmos 2219 3.9 07:15:09 50° N 07:15:09 50° N 07:19:23 10° NNE
CENTAUR R/B 3.2 07:20:44 39° NW 07:20:44 39° NW 07:26:33 10° NNE
Cosmos 2341 Rocket 4.3 07:27:49 59° ENE 07:27:49 59° ENE 07:33:28 10° NNE
ADEOS II 4.3 07:31:11 10° ENE 07:34:11 15° E 07:34:19 15° E
Cosmos 1937 Rocket 4.2 07:38:33 51° NNE 07:38:33 51° NNE 07:42:29 10° NNE
Cosmos 1898 Rocket 4.3 07:42:11 47° N 07:42:11 47° N 07:45:59 10° N
Cosmos 2263 Rocket 2.8 07:45:28 48° NW 07:45:28 48° NW 07:50:02 10° N
Resurs 1-4 Rocket 3.2 07:42:57 10° NNE 07:47:22 35° E 07:47:22 35° E
Cosmos 1821 Rocket 4.5 08:00:01 47° ESE 08:00:44 49° E 08:06:34 10° NNE
Cosmos 2218 Rocket 3.8 08:03:34 86° W 08:03:35 86° W 08:09:49 10° N
Cosmos 1844 Rocket 3.6 08:04:20 37° ESE 08:04:22 37° ESE 08:09:27 10° NE
Cosmos 2366 rocket 3.9 08:10:21 72° W 08:10:24 72° W 08:16:40 10° N
NOSS 3-2 (C) 3.5 08:12:44 54° NW 08:12:44 54° NW 08:18:01 10° NNE
ALOS 4.3 08:09:37 10° NE 08:12:46 18° E 08:13:24 18° ESE
Cosmos 1544 Rocket 4.4 08:14:49 10° N 08:18:03 48° N 08:18:03 48° N
Cosmos 1680 Rocket 3.9 08:14:26 10° N 08:19:33 57° ENE 08:20:14 53° ESE
Cosmos 1818 4.4 08:16:24 10° NNW 08:21:42 48° ENE 08:24:47 23° ESE
Cosmos 2228 3.8 08:18:33 10° N 08:21:59 51° NNE 08:21:59 51° NNE
USA 267 3.3 08:16:37 10° NE 08:23:05 63° SE 08:24:01 57° SSE
MSX 3.6 08:19:30 10° NNE 08:25:15 83° WNW 08:25:33 79° SW
COSMOS 2441 4.5 08:24:32 10° NNE 08:29:13 69° E 08:29:13 69° E
SL-16 R/B 3.0 08:24:28 10° NW 08:28:23 37° WNW 08:28:23 37° WNW
SL-16 R/B 3.9 08:29:05 10° SE 08:34:39 35° ENE 08:40:12 10° N
CZ-2C R/B 2.6 08:37:15 63° SE 08:38:05 80° ENE 08:43:26 10° N
IDEFIX/ARIANE 42P 2.9 08:33:14 10° N 08:38:13 50° WNW 08:38:13 50° WNW
SEDSat Delta rocket 4.3 08:41:06 27° E 08:41:06 27° E 08:43:07 10° E
Mugunghwa Rocket 4.3 08:42:20 46° SSE 08:42:20 46° SSE 08:48:10 10° E
CZ-2C R/B 2.8 08:39:11 10° N 08:44:29 79° WNW 08:44:52 74° SW
Cosmos 1943 3.4 08:39:04 10° NNW 08:44:40 66° ENE 08:47:43 27° SE
CZ-2D R/B 2.2 08:43:18 10° N 08:48:31 59° WNW 08:48:55 57° W
FENGYUN 3A 3.5 08:46:29 10° NNE 08:51:53 89° W 08:52:54 60° SSW
ASTEX 1 3.9 08:52:22 35° SE 08:54:12 56° E 08:58:57 10° N
Cosmos 1606 Rocket 4.3 08:50:29 10° N 08:54:47 48° E 08:56:15 34° SE
Cosmos 921 Rocket 4.4 08:51:27 10° N 08:55:19 35° ENE 08:57:56 17° SE
Cosmos 1125 Rocket 4.0 08:57:57 38° SSE 08:59:35 54° ESE 09:04:44 10° NNE
Cosmos 1867 4.1 09:01:14 41° W 09:02:14 46° WNW 09:07:30 10° NNE
Cosmos 2239 Rocket 4.4 09:00:57 48° SSW 09:02:43 72° W 09:08:51 10° N
Cosmos 1727 Rocket 4.0 09:01:43 10° NNW 09:07:59 67° W 09:10:22 39° SSW
Cosmos 1726 Rocket 4.2 09:05:57 10° N 09:10:17 54° E 09:12:35 25° SSE
Cosmos 494 Rocket 4.3 09:07:03 10° N 09:12:16 65° ENE 09:17:16 11° SSE
Cosmos 1812 4.3 09:10:09 10° NNE 09:13:19 29° E 09:15:37 15° SE
Cosmos 2058 3.7 09:12:19 32° SE 09:13:42 46° E 09:17:36 10° NNE
ADEOS II 2.4 09:08:57 10° N 09:14:00 51° WNW 09:15:11 42° WSW
Cosmos 1844 4.0 09:15:24 40° WSW 09:17:05 55° WNW 09:22:46 10° N
IRAS Rocket 4.2 09:12:50 10° NNE 09:18:20 78° ESE 09:20:58 32° S
USA 238 DEB 4.3 09:16:15 28° W 09:18:37 38° NW 09:24:38 10° NNE
USA 238 4.3 09:16:17 28° W 09:18:40 38° NW 09:24:42 10° NNE
GOES 2 Rocket 4.5 09:21:11 23° SSE 09:21:11 23° SSE 09:23:26 10° SE
Cosmos 1000 Rocket 4.4 09:15:50 10° N 09:22:05 74° W 09:25:45 26° S
SAR-Lupe-4 3.4 09:18:40 10° NNE 09:22:14 89° WNW 09:22:35 71° SSW
ATLAS 5 CENTAUR R/B 2.2 09:25:49 26° SE 09:26:28 29° ESE 09:29:22 10° NE
Resurs 1-4 Rocket 3.5 09:23:15 10° NNW 09:27:18 23° WNW 09:28:26 21° W
Timation 2 Rocket 4.0 09:23:53 31° SSW 09:27:20 88° WNW 09:33:51 10° NNE
Iridium 4 Rocket 4.0 09:25:15 10° N 09:29:42 51° E 09:34:33 10° SSE
UNK 4.1 09:25:29 11° SSE 09:29:54 63° ENE 09:34:26 10° N
Meteor 1-28 Rocket 3.3 09:35:43 46° WSW 09:35:45 46° W 09:39:10 10° NNW
Delta 142 4.3 09:40:12 30° WSW 09:42:18 47° S 09:48:22 10° ESE
Cosmos 1544 2.2 09:42:30 67° SSE 09:42:43 75° E 09:45:19 10° N
NOSS 2-3 (D) 4.2 09:42:01 22° S 09:43:51 37° ESE 09:47:18 10° NE
Cosmos 1892 Rocket 4.1 09:42:42 33° WSW 09:43:53 40° W 09:48:01 10° N
Cosmos 1535 Rocket 4.4 09:39:57 21° S 09:44:22 79° W 09:50:33 10° N
Delta 2 Rocket 3.4 09:43:07 16° WNW 09:46:16 74° NNE 09:50:39 10° E
NOAA 11 4.2 09:41:49 10° NNE 09:47:19 80° ESE 09:51:42 16° S
Cosmos 1844 Rocket 4.0 09:45:59 19° W 09:48:16 24° WNW 09:52:45 10° N
Cosmos 2058 Rocket 3.2 09:44:08 10° N 09:48:34 77° E 09:52:55 10° S
ALOS 3.1 09:45:50 10° N 09:49:58 34° WNW 09:51:42 25° WSW
Cosmos 2298 Rocket 4.0 09:49:11 22° SSW 09:52:44 86° WNW 09:58:05 10° NNE
METEOR-M 4.1 09:49:11 10° N 09:54:32 78° WNW 09:58:36 18° SSW
BREEZE-M DEB (TANK) 3.5 09:54:25 27° WSW 09:56:11 66° NNW 10:05:15 10° NE
Cosmos 1607 4.0 09:54:58 10° NNW 10:01:22 86° ENE 10:07:35 10° SSE
NOSS 2-2 (C) 3.0 10:00:13 28° SW 10:01:48 57° WNW 10:04:54 10° NNE
Cosmos 1605 Rocket 4.0 09:57:05 15° SSW 10:02:16 67° W 10:08:23 10° N
USA 267 4.3 10:00:02 10° NNE 10:05:46 34° NW 10:11:21 10° W
Cosmos 2278 Rocket 3.7 10:05:28 10° SSE 10:10:30 34° ESE 10:15:34 10° NE
NOSS 2-2 (D) 2.8 10:08:13 21° SSW 10:10:34 83° WNW 10:13:45 10° NNE
Cosmos 1626 Rocket 3.5 10:06:56 14° SSW 10:10:39 69° W 10:15:03 10° N
NOSS 2-3 (E) 3.0 10:08:40 21° SW 10:11:01 79° WNW 10:14:44 10° NNE
CZ-4 R/B 4.1 10:06:25 10° N 10:11:13 55° WNW 10:15:17 15° SSW
BREEZE-M DEB (TANK) 4.0 10:15:45 11° S 10:15:45 11° S 10:15:56 10° S
H-2A R/B 3.4 10:10:05 10° NNE 10:15:00 39° E 10:19:46 10° SSE
NOSS 2-3 (C) 3.1 10:13:54 19° SW 10:16:23 67° WNW 10:20:04 10° NNE
SL-16 R/B 3.3 10:13:12 12° SSW 10:18:07 31° W 10:23:33 10° NW
Cosmos 1862 3.9 10:14:35 10° S 10:18:18 53° E 10:22:00 10° NNE
IRS-1D 3.5 10:16:27 10° N 10:21:36 80° WNW 10:26:37 10° SSW
Cosmos 1271 Rocket 2.8 10:18:10 10° S 10:21:43 69° E 10:25:17 10° NNE
SEDSat Delta rocket 2.7 10:20:59 11° W 10:24:49 74° S 10:28:56 10° E
Cosmos 1484 Rocket 4.2 10:27:06 10° NNE 10:30:39 37° E 10:34:09 10° SSE
Envisat 4.1 10:30:00 10° NNW 10:34:17 28° WNW 10:38:34 10° SW
Mugunghwa Rocket 4.3 10:31:08 10° WSW 10:37:23 48° S 10:43:25 10° ESE
Okean 1-7 Rocket 3.8 10:35:03 10° SSW 10:39:28 55° W 10:43:52 10° N
CZ-2C R/B 3.1 10:40:16 10° N 10:44:18 32° WNW 10:48:21 10° SW
Meteor 2-14 Rocket 4.5 10:38:18 10° N 10:44:22 90° WNW 10:50:26 10° S
NOSS 3-1 (C) 4.3 10:42:51 10° S 10:47:01 35° ESE 10:51:36 10° NE
Cosmos 1238 Rocket 4.0 10:45:59 10° NW 10:47:52 15° W 10:49:40 10° SW
Lacrosse 5 2.6 10:43:01 10° SSW 10:47:52 50° ESE 10:52:45 10° NE
Cosmos-2242 3.2 10:44:31 10° NNW 10:48:41 49° W 10:52:47 10° SSW
Cosmos 1802 Rocket 4.5 10:42:49 10° S 10:49:09 70° E 10:55:33 10° N
Cosmos 1782 3.2 10:50:05 10° NNW 10:53:41 40° W 10:57:16 10° SSW
